| time (UTC) | temp C | wind direction | speed KPH | gust KPH | rain 1hr cm | rain 24hr cm | rain mn cm | humidity % | barometer mb |
| 20260905114536 | 7 | 162 | 4.8 | 9.7 | 0.00 | 0.10 | 0.00 | 93 | 1018.5 |
| 20260905113034 | 8 | 168 | 4.8 | 8.0 | 0.00 | 0.10 | 0.00 | 93 | 1018.4 |
| 20260905111533 | 8 | 135 | 4.8 | 8.0 | 0.00 | 0.10 | 0.00 | 93 | 1018.4 |
| 20260905110036 | 8 | 158 | 0.0 | 6.4 | 0.00 | 0.10 | 0.00 | 93 | 1018.5 |
| 20260905104530 | 8 | 172 | 1.6 | 4.8 | 0.00 | 0.10 | 0.00 | 93 | 1018.5 |
| 20260905103032 | 8 | 144 | 1.6 | 4.8 | 0.00 | 0.10 | 0.00 | 93 | 1018.4 |
| 20260905101608 | 8 | 172 | 4.8 | 8.0 | 0.00 | 0.10 | 0.00 | 93 | 1018.4 |
| 20260905100036 | 8 | 167 | 4.8 | 9.7 | 0.00 | 0.10 | 0.00 | 93 | 1018.5 |
| 20260905094543 | 8 | 154 | 6.4 | 11.3 | 0.00 | 0.10 | 0.00 | 93 | 1018.4 |
| 20260905091536 | 8 | 176 | 6.4 | 11.3 | 0.00 | 0.10 | 0.00 | 93 | 1018.4 |
| 20260905090032 | 8 | 164 | 6.4 | 12.9 | 0.00 | 0.10 | 0.00 | 93 | 1018.4 |
| 20260905081531 | 8 | 141 | 6.4 | 14.5 | 0.00 | 0.10 | 0.00 | 93 | 1018.3 |
| 20260905080035 | 8 | 142 | 4.8 | 6.4 | 0.00 | 0.10 | 0.00 | 93 | 1018.3 |
| 20260905074531 | 8 | 142 | 6.4 | 9.7 | 0.00 | 0.10 | 0.00 | 93 | 1018.1 |
| 20260905071536 | 8 | 156 | 4.8 | 9.7 | 0.00 | 0.10 | 0.00 | 92 | 1017.9 |
| 20260905070030 | 8 | 160 | 4.8 | 11.3 | 0.03 | 0.10 | 0.00 | 92 | 1017.8 |
| 20260905064535 | 9 | 160 | 3.2 | 8.0 | 0.05 | 0.10 | 0.10 | 92 | 1017.7 |
| 20260905063035 | 10 | 161 | 4.8 | 8.0 | 0.05 | 0.10 | 0.10 | 92 | 1017.6 |
| 20260905061536 | 10 | 161 | 4.8 | 9.7 | 0.05 | 0.10 | 0.08 | 92 | 1017.7 |
| 20260905060032 | 10 | 157 | 1.6 | 6.4 | 0.03 | 0.08 | 0.05 | 92 | 1017.8 |
| 20260905054535 | 10 | 171 | 3.2 | 6.4 | 0.00 | 0.05 | 0.05 | 91 | 1017.9 |
| 20260905053030 | 10 | 171 | 4.8 | 9.7 | 0.00 | 0.05 | 0.05 | 91 | 1017.9 |
| 20260905051532 | 10 | 164 | 3.2 | 8.0 | 0.00 | 0.05 | 0.05 | 91 | 1017.8 |
| 20260905044531 | 10 | 173 | 4.8 | 6.4 | 0.00 | 0.05 | 0.05 | 90 | 1017.7 |
| 20260905043036 | 10 | 136 | 4.8 | 6.4 | 0.00 | 0.05 | 0.05 | 90 | 1017.5 |
| 20260905041535 | 10 | 175 | 3.2 | 6.4 | 0.00 | 0.05 | 0.05 | 89 | 1017.5 |
| 20260905040031 | 10 | 177 | 3.2 | 6.4 | 0.00 | 0.05 | 0.05 | 89 | 1017.3 |
| 20260905034537 | 10 | 162 | 3.2 | 4.8 | 0.00 | 0.05 | 0.05 | 88 | 1017.2 |
| 20260905031533 | 10 | 180 | 4.8 | 6.4 | 0.00 | 0.05 | 0.05 | 86 | 1017.0 |
| 20260905030032 | 11 | 208 | 3.2 | 6.4 | 0.00 | 0.05 | 0.05 | 85 | 1017.0 |
| 20260905024536 | 11 | 312 | 0.0 | 1.6 | 0.00 | 0.05 | 0.05 | 83 | 1017.0 |
| 20260905023032 | 11 | 336 | 1.6 | 4.8 | 0.00 | 0.05 | 0.05 | 82 | 1017.1 |
| 20260905021537 | 12 | 337 | 0.0 | 1.6 | 0.00 | 0.05 | 0.05 | 79 | 1016.9 |
| 20260905020036 | 13 | 337 | 1.6 | 3.2 | 0.00 | 0.05 | 0.05 | 78 | 1016.7 |
| 20260905013029 | 13 | 337 | 1.6 | 6.4 | 0.00 | 0.05 | 0.05 | 78 | 1016.4 |
| 20260905011534 | 13 | 337 | 3.2 | 4.8 | 0.00 | 0.05 | 0.05 | 78 | 1016.5 |
| 20260905010142 | 13 | 322 | 0.0 | 4.8 | 0.00 | 0.05 | 0.05 | 77 | 1016.3 |
| 20260905003107 | 13 | 292 | 0.0 | 4.8 | 0.00 | 0.05 | 0.05 | 79 | 1016.2 |
| 20260905001532 | 13 | 286 | 1.6 | 6.4 | 0.00 | 0.05 | 0.05 | 81 | 1016.1 |
| 20260905000106 | 13 | 254 | 1.6 | 6.4 | 0.00 | 0.05 | 0.05 | 80 | 1016.1 |
| 20260904233030 | 13 | 171 | 3.2 | 8.0 | 0.00 | 0.05 | 0.05 | 79 | 1016.0 |
| 20260904231643 | 14 | 148 | 3.2 | 8.0 | 0.00 | 0.05 | 0.05 | 78 | 1015.9 |
| 20260904224532 | 13 | 112 | 3.2 | 11.3 | 0.00 | 0.05 | 0.05 | 78 | 1015.8 |
| 20260904223031 | 13 | 73 | 4.8 | 9.7 | 0.00 | 0.05 | 0.05 | 80 | 1015.8 |
| 20260904221608 | 13 | 112 | 3.2 | 12.9 | 0.00 | 0.05 | 0.05 | 82 | 1015.8 |
| 20260904220035 | 13 | 138 | 3.2 | 9.7 | 0.00 | 0.05 | 0.05 | 84 | 1015.8 |
| 20260904214535 | 13 | 160 | 1.6 | 6.4 | 0.00 | 0.05 | 0.05 | 84 | 1015.8 |
| 20260904213035 | 13 | 76 | 1.6 | 6.4 | 0.00 | 0.05 | 0.05 | 84 | 1015.8 |
| 20260904211641 | 13 | 348 | 3.2 | 8.0 | 0.00 | 0.05 | 0.05 | 84 | 1015.6 |
| 20260904210034 | 13 | 270 | 0.0 | 6.4 | 0.00 | 0.05 | 0.05 | 85 | 1015.5 |
| 20260904204536 | 13 | 282 | 1.6 | 8.0 | 0.00 | 0.05 | 0.05 | 85 | 1015.4 |
| 20260904203034 | 12 | 332 | 1.6 | 6.4 | 0.00 | 0.05 | 0.05 | 86 | 1015.4 |
| 20260904201529 | 12 | 360 | 0.0 | 3.2 | 0.00 | 0.05 | 0.05 | 86 | 1015.6 |
| 20260904200036 | 12 | 314 | 3.2 | 8.0 | 0.00 | 0.05 | 0.05 | 85 | 1015.6 |
| 20260904194536 | 13 | 325 | 4.8 | 9.7 | 0.00 | 0.05 | 0.05 | 85 | 1015.6 |
| 20260904193034 | 13 | 309 | 3.2 | 9.7 | 0.00 | 0.05 | 0.05 | 86 | 1015.7 |
| 20260904191531 | 12 | 309 | 3.2 | 11.3 | 0.00 | 0.05 | 0.05 | 87 | 1015.7 |
| 20260904190030 | 12 | 309 | 3.2 | 9.7 | 0.00 | 0.05 | 0.05 | 86 | 1015.7 |
| 20260904184606 | 12 | 301 | 1.6 | 4.8 | 0.00 | 0.05 | 0.05 | 87 | 1015.7 |
| 20260904181532 | 12 | 284 | 1.6 | 6.4 | 0.00 | 0.05 | 0.05 | 88 | 1015.6 |
| 20260904180051 | 13 | 267 | 4.8 | 11.3 | 0.00 | 0.05 | 0.05 | 92 | 1015.5 |
| 20260904173036 | 10 | 337 | 0.0 | 1.6 | 0.00 | 0.05 | 0.05 | 95 | 1015.3 |
| 20260904171535 | 9 | 337 | 0.0 | 1.6 | 0.00 | 0.05 | 0.05 | 95 | 1015.5 |
| 20260904170035 | 10 | 337 | 1.6 | 4.8 | 0.03 | 0.05 | 0.05 | 95 | 1015.3 |
| 20260904164534 | 10 | 323 | 3.2 | 6.4 | 0.03 | 0.05 | 0.05 | 95 | 1015.2 |
| 20260904161531 | 10 | 322 | 1.6 | 8.0 | 0.03 | 0.05 | 0.03 | 96 | 1015.1 |
| 20260904160105 | 9 | 330 | 3.2 | 6.4 | 0.00 | 0.03 | 0.03 | 96 | 1015.0 |
| 20260904154608 | 9 | 337 | 3.2 | 4.8 | 0.00 | 0.03 | 0.03 | 96 | 1014.9 |
| 20260904153034 | 9 | 227 | 0.0 | 4.8 | 0.00 | 0.03 | 0.03 | 96 | 1014.7 |
| 20260904151539 | 8 | 195 | 1.6 | 4.8 | 0.00 | 0.03 | 0.03 | 96 | 1014.6 |
| 20260904150106 | 8 | 153 | 3.2 | 8.0 | 0.00 | 0.03 | 0.03 | 96 | 1014.4 |
| 20260904144539 | 7 | 135 | 3.2 | 6.4 | 0.00 | 0.03 | 0.03 | 96 | 1014.4 |
| 20260904143034 | 7 | 147 | 3.2 | 6.4 | 0.00 | 0.03 | 0.03 | 96 | 1014.3 |
| 20260904141531 | 7 | 168 | 3.2 | 6.4 | 0.00 | 0.03 | 0.03 | 96 | 1014.1 |
| 20260904140032 | 7 | 164 | 3.2 | 6.4 | 0.00 | 0.03 | 0.03 | 96 | 1013.9 |
| 20260904134535 | 7 | 157 | 4.8 | 8.0 | 0.00 | 0.03 | 0.03 | 96 | 1013.8 |
| 20260904133036 | 7 | 136 | 4.8 | 8.0 | 0.00 | 0.03 | 0.03 | 96 | 1013.7 |
| 20260904131530 | 7 | 136 | 4.8 | 6.4 | 0.00 | 0.03 | 0.03 | 96 | 1013.6 |
| 20260904130030 | 7 | 165 | 3.2 | 6.4 | 0.00 | 0.03 | 0.03 | 96 | 1013.4 |
| 20260904124606 | 7 | 180 | 3.2 | 4.8 | 0.03 | 0.03 | 0.03 | 96 | 1013.5 |
| 20260904123034 | 7 | 177 | 3.2 | 8.0 | 0.03 | 0.03 | 0.03 | 96 | 1013.4 |
| 20260904121531 | 7 | 145 | 4.8 | 6.4 | 0.03 | 0.03 | 0.03 | 96 | 1013.3 |